Harrison, AR

3:40 PM CST on January 21, 2018 (GMT -0600)
Boone County

Weather History for KHRO - December, 2014

Change the Weather History Date:

Sunday, December 21, 2014

  Actual Average Record
Temperature  
Mean Temperature 42 °F 37 °F  
Max Temperature 46 °F 46 °F 69 °F (2015)
Min Temperature 38 °F 27 °F -5 °F (1989)
Degree Days  
Heating Degree Days 23 28  
Month to date heating degree days 501 546  
Since 1 July heating degree days 1355 1310  
Cooling Degree Days 0 0  
Month to date cooling degree days 0 0  
Year to date cooling degree days 1354 1416  
Moisture  
Dew Point 37 °F    
Average Humidity 85    
Maximum Humidity 100    
Minimum Humidity 70    
Precipitation  
Precipitation 0.00 in 0.10 in 2.46 in (1984)
Month to date precipitation 1.97 2.25  
Year to date precipitation 40.92 43.19  
Snow  
Snow 0.00 in 0.10 in 2.00 in (1916)
Month to date snowfall T 0.3  
Since 1 July snowfall 0.6 0.8  
Snow Depth 0.00 in    
Sea Level Pressure  
Sea Level Pressure 30.01 in    
Wind  
Wind Speed 9 mph (SE)    
Max Wind Speed 16 mph    
Max Gust Speed 20 mph    
Visibility 9 miles    
Events      
T = Trace of Precipitation, MM = Missing Value Source: NWS Daily Summary

Daily Weather History Graph

Daily Weather History Graph

Search for Another Location

Airport or City:

Trip Planner

Search our weather history database for the weather conditions in past years. The results will help you decide how hot, cold, wet, or windy it might be!

Date:

Astronomy

Dec. 21, 2014 Rise Set
Actual Time 7:20 AM CST 5:01 PM CST
Civil Twilight 6:51 AM CST 5:30 PM CST
Nautical Twilight 6:19 AM CST 6:02 PM CST
Astronomical Twilight 5:47 AM CST 6:33 PM CST
Moon 6:38 AM CST 5:06 PM CST
Length of Visible Light 10h 38m
Length of Day
9h 41m
Waning Crescent, 0% of the Moon is Illuminated
Dec 21
Waning Crescent
Dec 21
New
Dec 28
First Quarter
Jan 4
Full
Jan 13
Last Quarter

Hourly Weather History & Observations

Time (CST) Temp. Windchill Dew Point Humidity Pressure Visibility Wind Dir Wind Speed Gust Speed Precip Events Conditions
12:53 AM 39.9 °F - 37.0 °F 89% 30.19 in 10.0 mi Calm Calm - N/A   Overcast
1:53 AM 39.0 °F 36.8 °F 37.0 °F 93% 30.18 in 10.0 mi SE 3.5 mph - N/A   Overcast
2:53 AM 39.0 °F 35.7 °F 37.0 °F 93% 30.18 in 10.0 mi SE 4.6 mph - N/A   Overcast
3:53 AM 39.0 °F 35.7 °F 37.9 °F 96% 30.17 in 7.0 mi SE 4.6 mph - N/A   Overcast
4:53 AM 39.0 °F 34.0 °F 37.9 °F 96% 30.15 in 5.0 mi SE 6.9 mph - N/A   Overcast
5:53 AM 39.0 °F 34.0 °F 37.9 °F 96% 30.16 in 5.0 mi SE 6.9 mph - N/A   Overcast
6:46 AM 37.9 °F 34.4 °F 37.9 °F 100% 30.15 in 3.0 mi SE 4.6 mph - N/A   Overcast
6:53 AM 37.9 °F 33.5 °F 37.9 °F 100% 30.17 in 4.0 mi SE 5.8 mph - N/A   Overcast
7:53 AM 37.9 °F 30.9 °F 37.9 °F 100% 30.15 in 4.0 mi SSE 10.4 mph - N/A   Overcast
8:53 AM 39.0 °F 32.3 °F 37.9 °F 96% 30.14 in 7.0 mi SSE 10.4 mph - N/A   Overcast
9:53 AM 39.0 °F 31.8 °F 37.0 °F 93% 30.15 in 8.0 mi SSE 11.5 mph - N/A   Overcast
10:09 AM 39.0 °F 31.8 °F 36.0 °F 89% 30.12 in 8.0 mi SSE 11.5 mph - N/A   Overcast
10:53 AM 39.9 °F 32.5 °F 36.0 °F 86% 30.12 in 10.0 mi SSE 12.7 mph - N/A   Overcast
11:53 AM 41.0 °F 34.3 °F 36.0 °F 82% 30.08 in 10.0 mi SSE 11.5 mph - N/A   Overcast
12:53 PM 42.1 °F 35.7 °F 35.1 °F 76% 30.02 in 10.0 mi SE 11.5 mph - N/A   Overcast
1:53 PM 43.0 °F 37.2 °F 36.0 °F 76% 29.98 in 10.0 mi SE 10.4 mph - N/A   Overcast
2:11 PM 44.1 °F 39.0 °F 36.0 °F 73% 29.96 in 10.0 mi SE 9.2 mph - N/A   Overcast
2:53 PM 44.6 °F 38.8 °F 37.4 °F 76% 29.94 in 10.0 mi SSE 11.5 mph - N/A   Overcast
3:24 PM 45.0 °F 38.9 °F 37.0 °F 74% 29.94 in 10.0 mi SSE 12.7 mph - N/A   Overcast
3:53 PM 45.0 °F 38.9 °F 37.0 °F 74% 29.94 in 10.0 mi SSE 12.7 mph - N/A   Overcast
4:40 PM 45.0 °F 39.7 °F 36.0 °F 71% 29.92 in 10.0 mi SSE 10.4 mph - N/A   Overcast
4:53 PM 44.1 °F 39.5 °F 37.0 °F 76% 29.93 in 10.0 mi SSE 8.1 mph - N/A   Overcast
5:14 PM 44.1 °F 38.6 °F 36.0 °F 73% 29.92 in 10.0 mi SSE 10.4 mph - N/A   Overcast
5:38 PM 44.1 °F 39.0 °F 36.0 °F 73% 29.91 in 10.0 mi SSE 9.2 mph - N/A   Overcast
5:53 PM 43.0 °F 38.8 °F 36.0 °F 76% 29.92 in 10.0 mi SE 6.9 mph - N/A   Overcast
6:03 PM 43.0 °F 38.8 °F 36.0 °F 76% 29.91 in 10.0 mi SE 6.9 mph - N/A   Overcast
6:53 PM 43.0 °F 37.2 °F 36.0 °F 76% 29.91 in 10.0 mi SE 10.4 mph - N/A   Overcast
7:53 PM 43.0 °F 36.8 °F 36.0 °F 76% 29.90 in 10.0 mi SE 11.5 mph - N/A   Overcast
8:49 PM 42.8 °F 37.0 °F 35.6 °F 76% 29.87 in 10.0 mi SE 10.4 mph - N/A   Overcast
8:53 PM 43.0 °F 37.7 °F 36.0 °F 76% 29.88 in 10.0 mi SE 9.2 mph - N/A   Overcast
9:53 PM 44.1 °F 38.6 °F 36.0 °F 73% 29.85 in 10.0 mi ESE 10.4 mph - N/A   Overcast
10:53 PM 44.1 °F 39.5 °F 37.0 °F 76% 29.85 in 10.0 mi ESE 8.1 mph - N/A   Overcast
11:53 PM 44.1 °F 40.1 °F 37.0 °F 76% 29.82 in 10.0 mi ESE 6.9 mph - N/A   Overcast